Wind_Speed
24 23 21 23 25 25 25 25 24 24 24 22 19 20 22 21 18 15 14 13 14 13 11 10 9 8 6 4 3 2 0 1 4 5 6 6 7 7 8 8 4 5 6
24 25 25 25 25 25 23 22 21 21 20 18 18 20 20 17 15 13 14 14 13 12 10 9 8 7 5 4 2 1 1 4 5 6 5 6 7 6 7 7 6 5 7
26 26 23 24 24 23 21 19 18 18 17 16 16 18 18 14 11 12 12 13 12 11 9 7 6 5 5 4 3 3 3 3 4 5 4 8 7 4 8 8 5 6 9
24 24 23 23 22 21 19 18 16 16 16 15 15 15 14 12 11 11 11 10 9 8 7 6 5 4 4 4 3 4 4 2 4 6 5 5 8 5 8 7 6 7 10
23 22 21 21 21 20 18 16 16 16 15 15 14 14 13 11 10 10 8 7 6 5 5 5 5 4 4 4 4 4 4 3 4 5 6 6 5 6 7 8 8 9 9
21 20 20 19 18 17 15 14 15 15 14 14 14 13 11 11 12 10 7 5 3 3 2 2 2 2 3 3 4 4 4 2 4 5 5 8 5 4 6 8 8 9 9
19 19 18 17 16 15 14 14 14 14 14 13 13 12 12 11 11 10 7 4 2 1 1 3 3 3 2 3 4 4 4 2 4 3 4 7 6 3 5 7 8 10 12
17 17 17 16 14 12 12 12 12 12 11 11 11 11 10 9 8 7 5 4 4 4 4 6 7 7 6 5 5 6 5 4 3 3 4 7 6 1 3 6 7 8 10
17 16 16 16 14 12 12 11 10 11 10 9 9 8 8 6 5 5 5 5 6 6 7 8 8 8 8 8 6 6 5 5 4 5 3 5 4 1 4 4 6 9 10
15 14 12 12 12 11 10 10 9 9 9 8 7 6 5 4 5 5 6 7 8 9 9 10 10 9 8 8 8 7 5 4 4 6 4 5 3 2 4 6 6 9 9
14 14 12 12 10 10 9 9 8 7 6 6 5 4 4 4 5 5 6 8 9 10 11 11 11 12 9 8 9 8 7 5 6 6 5 4 3 3 4 5 7 8 8
11 11 11 10 9 8 8 8 7 6 6 5 4 4 4 4 5 6 7 9 10 10 11 13 11 11 12 9 9 8 9 9 9 7 8 5 4 4 6 7 8 9 9
11 10 8 9 8 7 7 6 7 7 7 7 6 5 5 5 6 7 8 9 10 11 11 12 12 12 10 11 11 10 10 10 11 12 10 7 7 6 7 8 9 10 10
11 9 8 8 8 8 7 7 7 7 7 7 7 7 5 6 6 8 9 10 9 10 11 11 13 13 13 12 11 12 13 13 13 13 12 11 10 10 8 9 9 10 11
10 9 9 9 9 8 8 7 8 8 9 9 7 7 6 7 8 9 10 10 9 10 11 13 14 14 15 14 14 13 14 13 14 14 15 13 13 13 12 11 11 11 11
10 10 10 10 9 9 8 8 8 8 9 10 10 9 8 8 9 10 11 10 10 10 14 15 16 17 17 17 17 16 16 17 16 15 15 15 15 15 15 14 13 13 13
9 9 9 7 8 8 8 8 8 10 10 11 11 12 12 11 11 11 14 14 14 15 16 17 19 21 21 20 19 19 19 19 19 18 18 16 17 16 16 17 16 16 16
8 6 5 5 6 7 8 9 10 12 12 12 13 15 14 14 13 15 17 19 19 20 21 22 23 23 23 24 24 23 23 22 22 21 21 19 17 18 20 19 18 18 18
7 5 3 2 4 7 9 10 11 13 13 13 14 15 17 18 18 20 21 22 23 27 26 26 26 28 28 27 27 27 26 25 25 25 24 23 23 20 20 23 23 20 20
7 3 2 4 6 8 10 12 13 14 15 17 18 19 20 22 23 24 24 25 26 28 30 32 32 31 32 31 31 31 30 29 28 28 28 26 26 24 23 23 26 26 24
6 3 5 8 10 11 12 14 16 17 18 18 20 22 24 26 27 28 30 32 34 36 36 36 37 36 32 32 33 32 35 34 33 31 29 29 28 27 26 25 24 28 27
8 11 11 9 6 6 10 13 17 19 21 23 26 28 31 33 35 36 38 39 40 40 38 34 33 32 33 31 33 31 36 36 36 36 34 32 31 30 29 27 28 28 30
7 7 9 10 10 10 12 12 15 18 20 23 25 27 29 29 32 35 37 38 38 37 34 32 28 28 30 30 34 34 36 36 27 28 35 34 34 33 32 30 29 31 32
3 4 6 11 13 16 18 19 17 18 19 22 25 26 26 27 27 28 29 30 31 29 29 29 27 25 28 30 31 33 35 34 35 31 29 35 36 35 35 35 34 32 33
5 2 5 9 14 19 25 25 23 19 20 20 21 22 23 25 25 26 27 26 25 26 25 27 26 26 26 29 29 32 34 34 35 37 33 29 35 38 36 36 34 35 33
9 7 6 8 13 20 27 30 23 18 17 18 20 21 22 24 26 27 28 28 28 24 23 26 27 26 26 29 30 32 34 34 34 35 39 37 37 37 26 40 38 37 35
Wind_Direction
126 126 126 119 118 119 118 117 118 122 123 125 127 127 125 121 112 105 104 108 114 121 115 115 115 122 123 121 116 113 113 322 330 335 322 322 331 332 338 348 2 37 65
126 123 122 120 119 119 121 120 121 123 125 124 127 128 124 120 109 107 110 116 119 118 117 114 111 118 110 91 76 51 318 329 339 344 349 356 359 330 349 11 15 54 80
123 123 119 122 124 124 124 122 120 123 122 119 124 128 127 119 113 112 120 123 123 121 118 112 102 92 79 62 41 17 357 0 1 353 358 2 358 357 11 24 46 79 88
126 125 124 125 126 126 125 123 123 121 115 115 121 126 128 125 128 133 130 127 125 117 114 106 89 66 50 37 17 7 2 4 2 7 31 354 354 30 23 39 58 89 92
128 128 126 125 129 132 131 126 126 122 119 121 129 133 136 136 140 146 137 129 121 121 120 96 76 48 39 9 355 4 8 25 23 10 38 24 14 46 33 50 64 93 96
130 130 128 128 129 132 131 128 127 124 121 123 127 134 138 142 146 152 150 141 133 127 107 83 38 36 34 6 353 0 354 2 356 24 11 5 7 41 49 62 67 97 108
135 134 132 130 133 136 138 136 134 135 133 132 134 140 148 154 154 161 167 177 213 240 279 292 291 297 310 322 328 338 347 308 325 357 21 349 2 24 64 78 79 93 102
138 137 137 134 136 137 138 139 141 142 142 141 144 148 155 163 167 174 187 203 233 265 279 289 294 290 296 297 313 320 321 307 304 307 334 344 345 15 104 98 98 103 106
142 141 142 140 141 143 142 145 150 154 155 158 160 164 170 177 195 207 221 238 250 261 276 280 292 295 294 299 295 298 313 314 301 305 285 344 323 271 156 129 124 115 116
144 142 142 141 145 143 145 150 153 159 164 170 177 188 194 209 232 247 258 265 273 278 278 285 285 287 290 293 284 286 280 286 287 293 298 303 330 251 184 162 148 129 123
143 146 146 148 150 147 151 155 154 162 164 172 184 202 219 240 253 263 271 273 275 279 282 281 283 285 286 285 279 272 265 263 268 278 286 277 275 218 196 179 169 154 135
131 139 149 146 148 153 160 157 160 158 164 171 184 192 214 237 259 276 279 280 281 282 283 281 281 279 280 287 285 271 256 254 255 253 260 254 251 217 200 193 180 169 157
130 137 146 149 153 157 166 174 181 186 184 186 199 219 232 253 266 274 280 283 288 291 290 289 286 284 290 282 278 278 271 254 249 242 245 245 244 231 210 199 194 185 173
140 145 145 154 168 175 177 186 198 205 204 206 213 224 240 255 270 273 278 284 288 301 293 288 282 278 277 277 281 281 276 266 251 242 248 241 236 233 220 217 205 201 189
152 156 156 162 172 178 187 196 205 212 217 225 227 232 243 260 271 280 289 288 286 289 289 284 283 283 284 278 280 275 270 264 258 250 246 239 233 240 233 218 216 215 209
173 175 173 177 176 179 194 209 218 226 228 229 232 240 247 256 270 280 289 288 291 290 282 284 281 281 281 280 275 268 263 258 258 260 256 253 238 237 237 232 219 219 218
178 182 184 188 191 193 201 218 232 234 237 236 236 244 248 255 268 282 294 299 300 297 297 297 288 282 275 275 275 271 261 250 255 257 258 257 245 235 242 237 230 222 219
148 160 187 202 211 221 225 233 247 254 255 253 253 258 265 270 280 288 293 297 299 302 303 301 296 287 280 277 269 264 263 255 251 254 254 254 250 248 243 244 236 231 223
154 153 168 229 271 275 272 273 279 281 276 267 266 268 268 269 270 272 271 274 286 289 296 295 292 288 283 275 272 266 260 256 255 254 252 251 252 248 252 240 239 238 232
101 121 271 286 291 285 286 287 285 280 278 271 270 273 274 277 279 280 281 282 284 286 289 290 289 283 279 277 272 267 265 260 255 254 253 252 250 248 247 250 241 238 238
84 30 320 301 292 288 281 280 277 278 278 277 276 276 278 279 281 283 283 286 288 289 289 288 286 280 274 274 269 269 262 261 259 255 255 252 251 249 247 248 245 238 235
111 88 70 55 30 327 298 283 282 281 281 279 277 278 278 280 281 281 282 284 286 287 287 285 282 279 274 266 267 264 261 263 260 258 256 251 250 251 250 249 248 243 239
111 86 61 43 23 1 352 323 295 284 282 283 284 285 284 282 282 281 282 284 286 287 289 288 278 273 271 265 261 261 261 263 262 256 259 252 248 247 249 252 251 248 246
156 69 42 28 18 7 354 337 321 300 291 288 287 288 289 289 286 283 281 281 285 286 284 287 284 271 263 264 261 261 260 258 253 254 254 262 246 245 248 249 252 251 249
220 277 358 6 2 358 354 343 329 312 302 298 296 297 298 296 295 293 294 292 288 284 283 284 281 275 267 264 261 263 263 261 259 254 246 251 256 246 244 246 248 251 250
233 259 304 330 341 346 348 343 329 306 298 303 307 309 306 304 304 302 302 301 299 292 281 280 280 275 269 266 264 262 263 263 260 259 256 254 247 250 256 247 246 248 249
Height
3191 3193 3195 3195 3196 3199 3202 3204 3206 3208 3209 3211 3212 3213 3213 3215 3216 3217 3217 3218 3220 3221 3222 3222 3223 3223 3224 3223 3223 3223 3222 3222 3221 3220 3219 3218 3217 3216 3214 3213 3211 3210 3209
3195 3196 3198 3198 3201 3204 3206 3208 3210 3212 3213 3214 3214 3215 3216 3217 3218 3220 3221 3221 3223 3224 3224 3224 3225 3225 3225 3224 3224 3223 3223 3222 3220 3220 3218 3217 3216 3216 3215 3213 3211 3211 3209
3198 3199 3201 3203 3205 3208 3210 3212 3213 3214 3215 3216 3217 3218 3218 3220 3221 3222 3223 3225 3225 3226 3226 3226 3226 3227 3227 3226 3225 3224 3224 3224 3222 3221 3219 3218 3217 3216 3215 3213 3213 3212 3211
3201 3203 3204 3206 3208 3209 3213 3213 3215 3216 3217 3217 3219 3220 3222 3222 3223 3224 3225 3227 3227 3227 3228 3228 3227 3228 3227 3227 3226 3225 3225 3224 3224 3222 3221 3220 3218 3217 3216 3215 3214 3213 3213
3205 3206 3208 3208 3211 3213 3214 3216 3217 3218 3218 3220 3221 3222 3223 3225 3226 3227 3228 3229 3228 3229 3229 3228 3228 3229 3229 3228 3227 3227 3226 3225 3224 3222 3222 3222 3221 3218 3217 3216 3215 3214 3214
3207 3209 3210 3210 3213 3215 3217 3217 3219 3220 3221 3222 3223 3225 3226 3227 3228 3229 3230 3230 3231 3230 3230 3229 3229 3229 3229 3229 3228 3227 3227 3226 3226 3223 3222 3221 3220 3219 3218 3217 3217 3216 3216
3209 3210 3212 3213 3215 3216 3218 3219 3221 3222 3223 3224 3225 3226 3227 3228 3229 3230 3230 3231 3231 3232 3231 3231 3230 3230 3229 3229 3227 3227 3227 3226 3226 3224 3222 3223 3220 3220 3219 3218 3218 3218 3217
3211 3212 3213 3215 3217 3219 3220 3222 3222 3224 3226 3227 3227 3228 3229 3230 3230 3231 3232 3232 3232 3232 3232 3231 3230 3230 3228 3228 3228 3227 3227 3226 3226 3224 3224 3223 3221 3220 3220 3220 3220 3220 3219
3212 3213 3215 3217 3218 3219 3220 3222 3224 3225 3226 3228 3229 3230 3231 3231 3232 3232 3232 3232 3232 3232 3231 3231 3230 3228 3227 3228 3227 3227 3224 3225 3225 3225 3224 3223 3222 3221 3220 3220 3221 3220 3220
3213 3214 3217 3218 3219 3221 3222 3223 3225 3226 3227 3229 3229 3230 3232 3232 3232 3233 3233 3232 3232 3231 3230 3229 3229 3227 3227 3226 3226 3226 3225 3225 3224 3224 3223 3223 3221 3221 3220 3221 3222 3221 3221
3214 3215 3217 3219 3220 3222 3223 3224 3226 3227 3228 3229 3230 3230 3231 3231 3231 3231 3231 3231 3231 3230 3230 3229 3228 3226 3226 3225 3225 3225 3224 3224 3224 3223 3223 3222 3222 3221 3221 3221 3221 3222 3222
3215 3217 3218 3219 3221 3222 3223 3225 3226 3227 3228 3229 3229 3230 3230 3230 3230 3230 3230 3230 3229 3228 3228 3227 3225 3225 3224 3225 3224 3223 3222 3223 3223 3223 3222 3222 3222 3221 3220 3221 3221 3221 3222
3216 3217 3219 3220 3221 3222 3223 3224 3225 3226 3227 3228 3228 3228 3228 3228 3228 3228 3227 3227 3227 3227 3227 3226 3224 3224 3224 3224 3224 3223 3222 3221 3221 3221 3220 3221 3222 3221 3221 3221 3221 3221 3221
3216 3217 3218 3219 3221 3221 3222 3223 3224 3224 3225 3226 3226 3227 3227 3227 3227 3226 3226 3226 3226 3225 3225 3224 3223 3223 3222 3222 3222 3222 3222 3221 3219 3219 3219 3219 3220 3220 3220 3221 3221 3221 3221
3216 3217 3218 3219 3219 3220 3221 3222 3222 3222 3223 3224 3224 3225 3225 3225 3225 3224 3224 3224 3223 3223 3222 3221 3221 3221 3220 3220 3220 3220 3219 3219 3219 3217 3217 3217 3218 3219 3219 3219 3220 3220 3220
3215 3216 3217 3217 3218 3219 3221 3221 3221 3221 3221 3221 3222 3222 3222 3223 3223 3222 3222 3221 3221 3220 3219 3219 3218 3218 3217 3216 3216 3216 3216 3216 3216 3216 3215 3215 3215 3216 3217 3217 3217 3218 3219
3215 3215 3216 3217 3217 3218 3218 3218 3220 3219 3219 3219 3219 3220 3220 3220 3220 3220 3220 3219 3219 3218 3217 3217 3216 3214 3213 3212 3212 3212 3212 3212 3213 3213 3213 3213 3213 3213 3214 3215 3215 3216 3217
3214 3217 3217 3217 3216 3217 3217 3217 3217 3218 3217 3217 3218 3217 3218 3217 3217 3217 3217 3217 3216 3215 3214 3214 3213 3211 3210 3208 3207 3207 3207 3208 3208 3208 3209 3210 3210 3211 3210 3212 3213 3214 3215
3215 3216 3217 3217 3217 3217 3216 3216 3217 3216 3216 3216 3215 3215 3213 3214 3214 3213 3213 3213 3211 3210 3209 3208 3208 3206 3205 3204 3203 3202 3201 3202 3204 3204 3204 3205 3206 3207 3207 3207 3209 3210 3211
3216 3216 3216 3216 3215 3215 3215 3215 3215 3214 3214 3213 3211 3211 3211 3210 3210 3209 3208 3207 3206 3204 3203 3202 3200 3199 3198 3197 3197 3197 3196 3196 3197 3198 3199 3199 3200 3202 3203 3203 3204 3205 3208
3216 3216 3215 3214 3214 3213 3213 3212 3211 3210 3209 3208 3207 3207 3206 3204 3203 3202 3201 3199 3199 3196 3194 3193 3191 3190 3190 3189 3189 3190 3189 3190 3190 3191 3193 3194 3195 3196 3197 3198 3199 3200 3201
3216 3216 3215 3214 3213 3212 3210 3209 3207 3206 3205 3204 3201 3200 3198 3197 3196 3195 3194 3191 3189 3187 3185 3184 3182 3180 3180 3181 3181 3181 3181 3182 3183 3184 3185 3187 3188 3190 3191 3192 3194 3195 3196
3215 3215 3214 3212 3211 3210 3208 3206 3204 3202 3200 3198 3196 3194 3191 3190 3189 3186 3184 3182 3180 3178 3176 3175 3174 3173 3172 3172 3173 3174 3173 3174 3178 3179 3177 3179 3181 3183 3185 3186 3187 3189 3190
3213 3212 3211 3210 3208 3207 3204 3201 3199 3196 3194 3191 3190 3187 3185 3183 3182 3179 3178 3175 3172 3170 3169 3167 3165 3166 3165 3164 3164 3165 3166 3168 3167 3171 3171 3170 3173 3175 3177 3179 3180 3181 3183
3209 3209 3208 3207 3206 3204 3201 3197 3194 3190 3188 3186 3183 3181 3179 3177 3174 3172 3169 3168 3166 3163 3161 3159 3158 3158 3158 3157 3157 3157 3158 3158 3159 3160 3162 3164 3165 3167 3168 3171 3173 3174 3175
3206 3206 3206 3205 3203 3200 3197 3193 3189 3186 3184 3181 3178 3175 3173 3170 3167 3164 3161 3160 3157 3156 3155 3153 3152 3151 3151 3150 3150 3150 3149 3150 3151 3152 3152 3155 3157 3159 3162 3162 3164 3166 3168